STARLINK-5005 (53921 NORAD) Tracking and Keplerian Element Data

This shows tracking and keplerian element data for the satellite.

Feedback or suggestion? Click here.




ElementValue
Catalog53921
NameSTARLINK-5005
Epoch Orbit529
Epoch Day298.31571443
Epoch Year2022
RAAN97.1251
Inclination53.2199
Eccentricity0.0006596
Argument of Perigee93.9728
Mean Anonmoly267.897
Mean Motion16.41101036
Decay Rate0.2679402
L11 53921U 22119AM 22298.31571443 .26794020 12369-4 16888-2 0 9994
L22 53921 53.2199 97.1251 0006596 93.9728 267.8970 16.41101036 5298



Live tracking and technical data element details for STARLINK-5005 (NORAD 53921). STARLINK-5005 can be tracked NOW for your location showing map with azimuth and elevation plus other details from your city location.







IsCatalogInMostPopularTable: catalog: 53921, numindb: 1
Update: records affected: 1



GetName: 53921 STARLINK-5005

Hit Count: updated at: Mon, 28 Nov 2022 21:04:49 GMT